Location: Huisseau
(47.5933°N, 1.4533°E)
Time: 17:57:05
(UTC+00:00)

CENTAUR R/B - Pass Details

Date: 19 November 2025
Orbit: 633 x 1547 km, 63.4° (Epoch: 06 December)

Event Time Altitude Azimuth Distance (km) Brightness Sun altitude
Exits shadow 04:04:29 41° 330° (NNW) 1,907 3.7 -30.2°
Maximum altitude 04:08:01 76° 47° (NE) 1,474 3.3 -29.6°
Drops below altitude 10° 04:17:25 10° 134° (SE) 3,709 6.0 -28.0°
Sets 04:20:33 0° 136° (SE) 4,704 6.7 -27.5°
